This demonstration page uses our WeatherBlox Daily Observations layout. Learn more.

Left ArrowRight Arrow

44.8408, -93.29828

Hourly Observations for July 27, 2021

Temp ( °F °C ) Dew Point ( °F °C ) Humidity (%) Winds ( mph kmh ) Pressure ( in mb ) Visibility ( mi km ) Precip ( " mm )
12:53 am 00:53 Partly Cloudy 81 27.2 67 19.4 62 62 SW 12 19 29.90 1012 10 16 0.00 0.00
1:53 am 01:53 Partly Cloudy 80 26.7 66 18.9 62 62 SW 12 19 29.90 1013 10 16 0.00 0.00
2:53 am 02:53 Partly Cloudy 79 26.1 66 18.9 65 65 WSW 10 17 29.88 1012 10 16 0.00 0.00
3:53 am 03:53 Partly Cloudy 78 25.6 66 18.9 67 67 SW 12 19 29.88 1012 10 16 0.00 0.00
4:53 am 04:53 Partly Cloudy 77 25 66 18.9 69 69 WSW 8 13 29.88 1012 10 16 0.00 0.00
5:53 am 05:53 Partly Cloudy 76 24.4 66 18.9 72 72 SW 9 15 29.89 1012 10 16 0.00 0.00
6:53 am 06:53 Mostly Cloudy 76 24.4 66 18.9 72 72 WSW 7 11 29.91 1013 9 14 0.00 0.00
7:53 am 07:53 Mostly Sunny 77 25 66 18.9 69 69 WSW 5 7 29.92 1013 9 14 0.00 0.00
8:53 am 08:53 Mostly Sunny 80 26.7 67 19.4 64 64 Calm 29.93 1014 9 14 0.00 0.00
9:53 am 09:53 Mostly Sunny 83 28.3 68 20 61 61 SSE 6 9 29.93 1014 9 14 0.00 0.00
10:53 am 10:53 Mostly Sunny 83 28.3 68 20 61 61 VRB 5 7 29.93 1014 9 14 0.00 0.00
11:53 am 11:53 Mostly Sunny 87 30.6 69 20.6 55 55 SE 9 15 29.93 1014 9 14 0.00 0.00
12:53 pm 12:53 Sunny 88 31.1 70 21.1 55 55 S 9 15 29.93 1014 9 14 0.00 0.00
1:53 pm 13:53 Sunny 90 32.2 71 21.7 54 54 SE 10 17 29.93 1014 9 14 0.00 0.00
2:53 pm 14:53 Mostly Sunny 90 32.2 72 22.2 56 56 SSE 12 19 29.92 1013 9 14 0.00 0.00
3:53 pm 15:53 Mostly Sunny 91 32.8 73 22.8 56 56 S 7 11 29.92 1013 9 14 0.00 0.00
4:53 pm 16:53 Partly Cloudy 92 33.3 73 22.8 54 54 SSE 8 13 29.91 1013 9 14 0.00 0.00
5:53 pm 17:53 Mostly Cloudy 92 33.3 73 22.8 54 54 VRB 5 7 29.91 1013 10 16 0.00 0.00
6:53 pm 18:53 Mostly Cloudy 92 33.3 73 22.8 54 54 Calm 29.91 1013 10 16 0.00 0.00
7:53 pm 19:53 Mostly Cloudy 91 32.8 74 23.3 57 57 Calm 29.92 1013 10 16 0.00 0.00
8:53 pm 20:53 Mostly Cloudy 89 31.7 75 23.9 63 63 SE 8 13 29.92 1013 9 14 0.00 0.00
9:53 pm 21:53 Mostly Cloudy 87 30.6 74 23.3 65 65 E 8 13 29.93 1013 10 16 0.00 0.00
10:53 pm 22:53 Partly Cloudy 84 28.9 74 23.3 72 72 E 9 15 29.96 1014 10 16 0.00 0.00
11:53 pm 23:53 Partly Cloudy 82 27.8 72 22.2 72 72 ESE 12 19 29.95 1014 10 16 0.00 0.00

Powered by AerisWeather